Aberdeen, SD

9:04 PM CDT on June 25, 2017 (GMT -0500)
Aberdeen Regional

Weather History for KABR - December, 2012

Change the Weather History Date:

Monday, December 31, 2012

  Actual Average Record
Temperature  
Mean Temperature 10 °F 12 °F  
Max Temperature 21 °F 22 °F 47 °F (1999)
Min Temperature -1 °F 2 °F -39 °F (1967)
Degree Days  
Heating Degree Days 55 53  
Month to date heating degree days 1529 1530  
Since 1 July heating degree days 3424 3491  
Cooling Degree Days 0 0  
Month to date cooling degree days 0 0  
Year to date cooling degree days 764 525  
Moisture  
Dew Point 3 °F    
Average Humidity 77    
Maximum Humidity 87    
Minimum Humidity 67    
Precipitation  
Precipitation T in 0.02 in 0.75 in (1931)
Month to date precipitation 0.75 0.52  
Year to date precipitation 14.64 21.72  
Snow  
Snow 0.20 in - - ()
Month to date snowfall 13.3  
Since 1 July snowfall 13.9  
Snow Depth 3.00 in    
Sea Level Pressure  
Sea Level Pressure 30.26 in    
Wind  
Wind Speed 6 mph (NE)    
Max Wind Speed 20 mph    
Max Gust Speed 24 mph    
Visibility 9 miles    
Events Snow    
T = Trace of Precipitation, MM = Missing Value Source: NWS Daily Summary

Daily Weather History Graph

Daily Weather History Graph

Search for Another Location

Airport or City:

Trip Planner

Search our weather history database for the weather conditions in past years. The results will help you decide how hot, cold, wet, or windy it might be!

Date:

Astronomy

Dec. 31, 2012 Rise Set
Actual Time 8:13 AM CST 5:00 PM CST
Civil Twilight 7:39 AM CST 5:34 PM CST
Nautical Twilight 7:02 AM CST 6:12 PM CST
Astronomical Twilight 6:26 AM CST 6:47 PM CST
Moon 8:43 PM CST (12/31) 9:46 AM CST (12/31)
Length of Visible Light 9h 55m
Length of Day
8h 46m
Waning Gibbous, 90% of the Moon is Illuminated
Dec 31
Waning Gibbous
Jan 4
Last Quarter
Jan 11
New
Jan 18
First Quarter
Jan 26
Full

Hourly Weather History & Observations

Time (CST) Temp. Windchill Dew Point Humidity Pressure Visibility Wind Dir Wind Speed Gust Speed Precip Events Conditions
12:53 AM 19.9 °F 5.7 °F 10.9 °F 68% 30.19 in 10.0 mi NNW 16.1 mph - N/A   Overcast
1:53 AM 18.0 °F 3.1 °F 9.0 °F 68% 30.20 in 10.0 mi North 16.1 mph - N/A   Overcast
2:53 AM 14.0 °F 3.9 °F 7.0 °F 74% 30.23 in 10.0 mi North 6.9 mph - N/A   Overcast
3:36 AM 10.4 °F -1.5 °F 5.0 °F 79% 30.17 in 10.0 mi NNW 8.1 mph - N/A   Scattered Clouds
3:53 AM 12.0 °F -2.0 °F 5.0 °F 73% 30.25 in 10.0 mi NNW 11.5 mph - N/A   Clear
4:53 AM 8.1 °F -5.3 °F 1.0 °F 73% 30.27 in 10.0 mi NW 9.2 mph - N/A   Clear
5:53 AM 5.0 °F -10.0 °F -0.9 °F 76% 30.28 in 10.0 mi NNW 10.4 mph - N/A   Clear
6:53 AM 3.0 °F -12.5 °F -2.9 °F 76% 30.27 in 10.0 mi North 10.4 mph - N/A   Clear
7:34 AM 3.2 °F -11.3 °F -0.4 °F 85% 30.18 in 10.0 mi North 9.2 mph - N/A   Mostly Cloudy
7:53 AM 1.9 °F -11.8 °F -2.9 °F 80% 30.27 in 10.0 mi NNE 8.1 mph - N/A   Mostly Cloudy
8:06 AM 1.4 °F -12.5 °F -4.0 °F 78% 30.18 in 10.0 mi NNE 8.1 mph - N/A   Partly Cloudy
8:53 AM -0.0 °F -14.2 °F -4.0 °F 83% 30.29 in 10.0 mi ENE 8.1 mph - N/A   Scattered Clouds
9:00 AM 1.4 °F -11.3 °F -4.0 °F 78% 30.21 in 10.0 mi ENE 6.9 mph - N/A   Mostly Cloudy
9:53 AM 6.1 °F - 1.0 °F 80% 30.33 in 10.0 mi Calm Calm - N/A   Overcast
10:34 AM 8.6 °F - 3.2 °F 79% 30.24 in 2.5 mi Calm Calm - 0.00 in Snow Light Snow
10:53 AM 9.0 °F - 3.0 °F 77% 30.32 in 2.5 mi Calm Calm - 0.00 in Snow Light Snow
11:34 AM 8.6 °F 0.1 °F 3.2 °F 79% 30.22 in 2.5 mi NNE 4.6 mph - 0.00 in Snow Light Snow
11:44 AM 8.6 °F -1.3 °F 3.2 °F 79% 30.22 in 3.0 mi NNE 5.8 mph - 0.00 in Snow Light Snow
11:53 AM 9.0 °F -0.9 °F 3.9 °F 80% 30.29 in 4.0 mi NE 5.8 mph - 0.00 in Snow Light Snow
12:53 PM 10.9 °F 0.2 °F 3.9 °F 73% 30.28 in 10.0 mi NNE 6.9 mph - 0.00 in   Overcast
1:53 PM 10.9 °F 1.4 °F 3.9 °F 73% 30.26 in 10.0 mi NNE 5.8 mph - N/A   Overcast
2:46 PM 10.4 °F 0.8 °F 3.2 °F 73% 30.18 in 8.0 mi ENE 5.8 mph - N/A   Overcast
2:53 PM 10.9 °F 2.9 °F 3.9 °F 73% 30.27 in 8.0 mi ENE 4.6 mph - N/A   Overcast
3:53 PM 10.0 °F 3.6 °F 3.0 °F 73% 30.28 in 10.0 mi ENE 3.5 mph - N/A   Overcast
4:53 PM 10.0 °F 0.4 °F 3.0 °F 73% 30.29 in 10.0 mi East 5.8 mph - N/A   Overcast
5:53 PM 10.0 °F 1.8 °F 3.0 °F 73% 30.30 in 10.0 mi East 4.6 mph - N/A   Overcast
6:53 PM 9.0 °F -0.9 °F 3.9 °F 80% 30.30 in 10.0 mi East 5.8 mph - 0.00 in   Overcast
7:53 PM 9.0 °F 0.6 °F 3.9 °F 80% 30.29 in 10.0 mi ENE 4.6 mph - N/A   Overcast
8:53 PM 9.0 °F 2.4 °F 3.9 °F 80% 30.28 in 10.0 mi ENE 3.5 mph - N/A   Overcast
9:02 PM 8.6 °F 2.0 °F 3.2 °F 79% 30.18 in 9.0 mi ENE 3.5 mph - N/A   Overcast
9:53 PM 10.0 °F 3.6 °F 3.9 °F 76% 30.27 in 10.0 mi NE 3.5 mph - N/A   Overcast
10:53 PM 10.9 °F - 5.0 °F 77% 30.28 in 10.0 mi Calm Calm - N/A   Overcast
11:53 PM 10.9 °F 4.7 °F 5.0 °F 77% 30.28 in 10.0 mi East 3.5 mph - N/A   Overcast